GW5357 Weather Reports


Display with metric or nautical units.
time (UTC)temp
F
wind
direction
speed
MPH
gust
MPH
rain 1hr
in
rain 24hr
in
rain mn
in
humidity
%
barometer
mb
20260507075505 54 117 3.0 7.0 0.00 0.00 0.00 77 1020.7
20260507075004 54 178 2.0 8.0 0.00 0.00 0.00 77 1020.7
20260507074502 54 178 4.0 8.0 0.00 0.00 0.00 77 1020.5
20260507074005 54 126 3.0 8.0 0.00 0.00 0.00 76 1020.5
20260507073500 54 110 3.0 8.0 0.00 0.00 0.00 76 1020.5
20260507073006 54 213 3.0 7.0 0.00 0.00 0.00 76 1020.5
20260507072504 54 117 3.0 9.0 0.00 0.00 0.00 75 1020.4
20260507072005 54 136 5.0 9.0 0.00 0.00 0.00 75 1020.4
20260507071505 54 138 5.0 10.0 0.00 0.00 0.00 75 1020.4
20260507071006 55 146 3.0 13.0 0.00 0.00 0.00 75 1020.4
20260507070506 55 127 5.0 13.0 0.00 0.00 0.00 75 1020.4
20260507070010 54 145 5.0 11.0 0.00 0.00 0.00 75 1020.3
20260507065507 54 136 5.0 11.0 0.00 0.00 0.00 76 1020.2
20260507065005 54 144 5.0 11.0 0.00 0.00 0.00 76 1020.2
20260507064506 54 152 4.0 11.0 0.00 0.00 0.00 77 1020.2
20260507064005 55 145 5.0 9.0 0.00 0.00 0.00 77 1020.1
20260507063505 55 178 5.0 11.0 0.00 0.00 0.00 77 1020.0
20260507063006 55 147 5.0 11.0 0.00 0.00 0.00 77 1020.1
20260507062505 55 63 4.0 11.0 0.00 0.00 0.00 77 1019.9
20260507062005 55 160 5.0 9.0 0.00 0.00 0.00 77 1019.9
20260507061505 55 144 3.0 8.0 0.00 0.00 0.00 78 1019.9
20260507061005 55 135 3.0 8.0 0.00 0.00 0.00 78 1020.0
20260507060505 55 165 5.0 9.0 0.00 0.00 0.00 78 1020.0
20260507055506 55 164 3.0 7.0 0.00 0.00 0.00 78 1020.0
20260507055006 55 149 4.0 11.0 0.00 0.00 0.00 78 1020.0
20260507054506 55 141 4.0 11.0 0.00 0.00 0.00 77 1019.9
20260507054005 55 107 5.0 11.0 0.00 0.00 0.00 77 1019.9
20260507053506 55 131 5.0 11.0 0.00 0.00 0.00 77 1019.9
20260507053006 55 175 4.0 7.0 0.00 0.00 0.00 77 1020.0
20260507052505 55 143 4.0 10.0 0.00 0.00 0.00 78 1020.0
20260507052006 55 300 5.0 10.0 0.00 0.00 0.00 78 1020.0
20260507051005 55 178 4.0 7.0 0.00 0.00 0.00 78 1020.0
20260507050506 55 123 3.0 7.0 0.00 0.00 0.00 78 1020.2
20260507045505 55 269 3.0 7.0 0.00 0.00 0.00 78 1020.3
20260507045006 55 124 3.0 8.0 0.00 0.00 0.00 78 1020.3
20260507044506 56 213 3.0 8.0 0.00 0.00 0.00 78 1020.2
20260507044005 56 195 3.0 9.0 0.00 0.00 0.00 77 1020.2
20260507043505 56 143 4.0 9.0 0.00 0.00 0.00 77 1020.1
20260507043006 56 117 3.0 11.0 0.00 0.00 0.00 78 1020.0
20260507042505 56 124 4.0 11.0 0.00 0.00 0.00 78 1020.0
20260507042006 55 124 3.0 10.0 0.00 0.00 0.00 78 1019.9
20260507041005 56 161 5.0 9.0 0.00 0.00 0.00 78 1019.9
20260507040507 56 103 4.0 9.0 0.00 0.00 0.00 78 1020.0
20260507040008 56 161 4.0 9.0 0.00 0.00 0.00 78 1019.9
20260507035505 56 155 4.0 7.0 0.00 0.00 0.00 78 1020.0
20260507035006 56 114 3.0 10.0 0.00 0.00 0.00 78 1019.9
20260507034506 56 135 3.0 10.0 0.00 0.00 0.00 78 1019.9
20260507034005 56 162 2.0 9.0 0.00 0.00 0.00 78 1019.9
20260507033506 56 117 3.0 9.0 0.00 0.00 0.00 77 1019.9
20260507033006 56 127 4.0 9.0 0.00 0.00 0.00 77 1019.8
20260507032504 56 167 4.0 10.0 0.00 0.00 0.00 78 1019.9
20260507032006 56 149 3.0 10.0 0.00 0.00 0.00 78 1019.8
20260507031506 56 131 2.0 10.0 0.00 0.00 0.00 78 1019.7
20260507031005 55 122 6.0 10.0 0.00 0.00 0.00 78 1019.6
20260507030506 56 142 5.0 9.0 0.00 0.00 0.00 78 1019.6
20260507030007 56 133 3.0 8.0 0.00 0.00 0.00 78 1019.8
20260507025506 56 105 3.0 7.0 0.00 0.00 0.00 78 1019.8
20260507025005 55 161 3.0 9.0 0.00 0.00 0.00 79 1019.9
20260507024506 55 122 3.0 9.0 0.00 0.00 0.00 79 1019.9
20260507024006 55 163 3.0 7.0 0.00 0.00 0.00 80 1019.8
20260507023505 55 130 3.0 7.0 0.00 0.00 0.00 79 1019.8
20260507023007 55 151 3.0 7.0 0.00 0.00 0.00 79 1019.9
20260507022506 55 100 2.0 9.0 0.00 0.00 0.00 78 1019.9
20260507021505 56 1 3.0 7.0 0.00 0.00 0.00 78 1019.8
20260507020007 56 223 3.0 9.0 0.00 0.00 0.00 77 1019.9
20260507015506 56 162 5.0 12.0 0.00 0.00 0.00 77 1019.9
20260507015006 56 155 5.0 12.0 0.00 0.00 0.00 76 1020.0
20260507014507 56 204 4.0 9.0 0.00 0.00 0.00 76 1019.9
20260507014006 56 157 3.0 8.0 0.00 0.00 0.00 76 1019.9
20260507013505 56 76 4.0 9.0 0.00 0.00 0.00 76 1019.9
20260507013006 56 114 4.0 11.0 0.00 0.00 0.00 76 1019.9
20260507012006 56 166 6.0 10.0 0.00 0.00 0.00 75 1019.9
20260507011505 56 193 3.0 9.0 0.00 0.00 0.00 76 1019.8
20260507010505 56 141 4.0 9.0 0.00 0.00 0.00 76 1019.9
20260507010007 56 157 4.0 7.0 0.00 0.00 0.00 75 1020.0
20260507005504 57 157 4.0 7.0 0.00 0.00 0.00 75 1019.9
20260507005005 57 185 3.0 8.0 0.00 0.00 0.00 75 1020.0
20260507004507 57 76 3.0 8.0 0.00 0.00 0.00 76 1020.0
20260507003006 56 143 4.0 10.0 0.00 0.00 0.00 76 1020.1
20260507002505 57 124 3.0 10.0 0.00 0.00 0.00 76 1020.0
20260507002005 57 95 5.0 12.0 0.00 0.00 0.00 77 1020.0
20260507001506 57 122 3.0 12.0 0.00 0.00 0.00 77 1020.0
20260507001005 56 123 4.0 9.0 0.00 0.00 0.00 77 1020.0
20260507000506 56 213 4.0 8.0 0.00 0.00 0.00 76 1019.9
20260507000005 56 129 4.0 9.0 0.00 0.00 0.00 77 1019.9
20260506235505 56 178 3.0 12.0 0.00 0.00 0.00 77 1019.9
20260506235005 56 100 5.0 12.0 0.00 0.00 0.00 77 1019.9
20260506234505 56 143 4.0 8.0 0.00 0.00 0.00 77 1019.9
20260506234005 56 171 3.0 9.0 0.00 0.00 0.00 77 1020.0
20260506233505 56 115 6.0 9.0 0.00 0.00 0.00 76 1019.9
20260506233006 56 161 3.0 7.0 0.00 0.00 0.00 77 1019.9
20260506232505 57 113 3.0 8.0 0.00 0.00 0.00 77 1020.0
20260506232005 57 193 2.0 8.0 0.00 0.00 0.00 77 1020.0
20260506231006 57 145 2.0 11.0 0.00 0.00 0.00 76 1019.9
20260506230505 57 117 4.0 10.0 0.00 0.00 0.00 75 1019.9
20260506230006 57 28 4.0 9.0 0.00 0.00 0.00 75 1019.9
20260506225506 58 129 5.0 10.0 0.00 0.00 0.00 75 1020.0
20260506225005 57 135 3.0 10.0 0.00 0.00 0.00 76 1020.0
20260506224507 58 68 3.0 9.0 0.00 0.00 0.00 75 1020.1
20260506224005 58 117 4.0 11.0 0.00 0.00 0.00 77 1020.1
20260506223007 58 135 3.0 10.0 0.00 0.00 0.00 76 1020.1
20260506222506 57 129 4.0 11.0 0.00 0.00 0.00 76 1020.1
20260506222007 57 110 5.0 11.0 0.00 0.00 0.00 77 1020.1
20260506221506 57 143 5.0 10.0 0.00 0.00 0.00 77 1020.1
20260506221006 56 152 3.0 10.0 0.00 0.00 0.00 78 1020.1
20260506220505 56 156 4.0 10.0 0.00 0.00 0.00 79 1020.1
20260506215505 56 178 4.0 11.0 0.00 0.00 0.00 79 1020.2
20260506215006 56 132 5.0 11.0 0.00 0.00 0.00 79 1020.1
20260506214506 56 108 6.0 10.0 0.00 0.00 0.00 79 1020.1
20260506213505 55 148 4.0 9.0 0.00 0.00 0.00 80 1020.2
20260506212505 55 129 3.0 10.0 0.00 0.00 0.00 81 1020.2
20260506212007 55 155 4.0 10.0 0.00 0.00 0.00 81 1020.2
20260506211506 55 98 3.0 8.0 0.00 0.00 0.00 81 1020.3
20260506211006 54 163 5.0 8.0 0.00 0.00 0.00 82 1020.2
20260506210506 54 105 3.0 9.0 0.00 0.00 0.00 82 1020.2
20260506205505 54 135 6.0 10.0 0.00 0.00 0.00 82 1020.4
20260506205005 54 117 4.0 10.0 0.00 0.00 0.00 82 1020.2
20260506204506 55 123 5.0 10.0 0.00 0.00 0.00 81 1020.2
20260506204004 54 117 5.0 10.0 0.00 0.00 0.00 82 1020.1
20260506203506 54 140 3.0 7.0 0.00 0.00 0.00 83 1020.2
20260506203006 54 124 3.0 7.0 0.00 0.00 0.00 84 1020.2
20260506202506 54 127 2.0 8.0 0.00 0.00 0.00 83 1020.4
20260506202005 54 135 4.0 8.0 0.00 0.00 0.00 84 1020.4
20260506201505 54 114 3.0 6.0 0.00 0.00 0.00 85 1020.3
20260506201004 53 191 3.0 6.0 0.00 0.00 0.00 84 1020.4
20260506200505 53 130 2.0 6.0 0.00 0.00 0.00 85 1020.4
20260506200006 53 95 3.0 7.0 0.00 0.00 0.00 85 1020.3
20260506195505 53 148 3.0 8.0 0.00 0.00 0.00 85 1020.4
20260506195006 53 135 4.0 8.0 0.00 0.00 0.00 84 1020.3
20260506194005 53 152 2.0 6.0 0.00 0.00 0.00 85 1020.3
20260506193006 53 203 2.0 7.0 0.00 0.00 0.00 85 1020.1
20260506192505 53 135 2.0 7.0 0.00 0.00 0.00 85 1020.0
20260506192005 53 178 3.0 8.0 0.00 0.00 0.00 85 1020.0
20260506191006 53 131 3.0 10.0 0.00 0.00 0.00 85 1019.9
20260506190505 53 128 2.0 7.0 0.00 0.00 0.00 85 1019.8
20260506190006 53 276 3.0 8.0 0.00 0.00 0.00 85 1019.9
20260506185006 53 128 3.0 8.0 0.00 0.00 0.00 86 1019.8
20260506184505 53 148 3.0 10.0 0.00 0.00 0.00 86 1019.8
20260506183504 53 135 3.0 7.0 0.00 0.00 0.00 86 1019.7
20260506183006 53 141 3.0 8.0 0.00 0.00 0.00 86 1019.7
20260506182004 53 211 2.0 8.0 0.00 0.00 0.00 86 1019.6
20260506181505 53 139 2.0 8.0 0.00 0.00 0.00 87 1019.6
20260506181004 53 221 2.0 7.0 0.00 0.00 0.00 87 1019.5
20260506180505 53 318 3.0 8.0 0.00 0.00 0.00 88 1019.6
20260506180006 53 98 3.0 10.0 0.00 0.00 0.00 87 1019.7
20260506175505 53 197 2.0 7.0 0.00 0.00 0.00 88 1019.6
20260506175005 53 163 3.0 7.0 0.00 0.00 0.00 87 1019.6
20260506174506 53 193 3.0 7.0 0.00 0.00 0.00 88 1019.5
20260506174006 53 284 2.0 7.0 0.00 0.00 0.00 88 1019.5
20260506173505 52 178 2.0 6.0 0.00 0.00 0.00 87 1019.3
20260506173007 52 172 2.0 6.0 0.00 0.00 0.00 88 1019.3
20260506172506 52 291 2.0 7.0 0.00 0.00 0.00 88 1019.3
20260506171006 52 213 2.0 8.0 0.00 0.00 0.00 89 1019.2
20260506170505 52 163 3.0 8.0 0.00 0.00 0.00 88 1019.0
20260506170006 52 193 3.0 7.0 0.00 0.00 0.00 88 1019.1
20260506165505 52 124 3.0 8.0 0.00 0.00 0.00 88 1019.2
20260506165007 52 89 2.0 8.0 0.00 0.00 0.00 88 1019.2
20260506164505 52 105 3.0 7.0 0.00 0.00 0.00 88 1019.3
20260506164005 52 155 2.0 7.0 0.00 0.00 0.00 88 1019.2
20260506163504 52 135 2.0 7.0 0.00 0.00 0.00 88 1019.2
20260506163006 52 214 4.0 10.0 0.00 0.00 0.00 88 1019.2
20260506162505 52 155 4.0 10.0 0.00 0.00 0.00 87 1019.3
20260506162005 52 128 3.0 8.0 0.00 0.00 0.00 87 1019.2
20260506161505 52 178 3.0 6.0 0.00 0.00 0.00 87 1019.3
20260506161006 52 89 2.0 7.0 0.00 0.00 0.00 87 1019.3
20260506160505 52 135 3.0 7.0 0.00 0.00 0.00 88 1019.4
20260506155505 52 340 2.0 7.0 0.00 0.00 0.00 88 1019.5
20260506154506 52 163 2.0 6.0 0.00 0.00 0.00 88 1019.3
20260506153504 52 122 3.0 7.0 0.00 0.00 0.00 88 1019.2
20260506153006 52 131 3.0 8.0 0.00 0.00 0.00 87 1019.1
20260506152506 52 169 3.0 10.0 0.00 0.00 0.00 88 1019.0
20260506152005 52 129 4.0 10.0 0.00 0.00 0.00 88 1018.8
20260506151505 52 223 5.0 10.0 0.00 0.00 0.00 88 1018.9
20260506151005 52 152 2.0 9.0 0.00 0.00 0.00 88 1018.8
20260506150505 52 141 5.0 9.0 0.00 0.00 0.00 87 1018.6
20260506150006 52 195 3.0 9.0 0.00 0.00 0.00 87 1018.6
20260506145506 52 135 3.0 10.0 0.00 0.00 0.00 87 1018.6
20260506145005 52 189 3.0 10.0 0.00 0.00 0.00 87 1018.5
20260506144005 52 211 3.0 7.0 0.00 0.00 0.00 87 1018.5
20260506143505 52 108 4.0 8.0 0.00 0.00 0.00 87 1018.4
20260506143006 52 186 3.0 9.0 0.00 0.00 0.00 87 1018.4
20260506142505 52 107 3.0 9.0 0.00 0.00 0.00 87 1018.4
20260506142004 52 127 3.0 9.0 0.00 0.00 0.00 87 1018.5
20260506141504 52 241 3.0 8.0 0.00 0.00 0.00 87 1018.5
20260506140007 52 237 2.0 10.0 0.00 0.00 0.00 87 1018.8
20260506135505 52 89 3.0 10.0 0.00 0.00 0.00 87 1018.5
20260506134505 52 135 3.0 10.0 0.00 0.00 0.00 86 1018.4
20260506134005 52 145 4.0 10.0 0.00 0.00 0.00 86 1018.2
20260506133504 52 112 6.0 10.0 0.00 0.00 0.00 86 1018.2
20260506133004 52 158 5.0 10.0 0.00 0.00 0.00 86 1018.1
20260506132504 52 196 3.0 9.0 0.00 0.00 0.00 86 1017.9
20260506132006 52 117 4.0 11.0 0.00 0.00 0.00 86 1017.9
20260506131504 52 140 6.0 10.0 0.00 0.00 0.00 86 1017.9
20260506131006 52 117 5.0 10.0 0.00 0.00 0.00 86 1017.9
20260506130006 52 178 5.0 13.0 0.00 0.00 0.00 86 1018.0
20260506125504 52 132 4.0 13.0 0.00 0.00 0.00 86 1018.2
20260506125004 52 145 4.0 12.0 0.00 0.00 0.00 86 1018.1
20260506124506 52 124 3.0 12.0 0.00 0.00 0.00 86 1018.0
20260506124005 52 135 4.0 10.0 0.00 0.00 0.00 86 1018.0
20260506123505 52 125 4.0 10.0 0.00 0.00 0.00 86 1018.1
20260506123005 52 132 4.0 10.0 0.00 0.00 0.00 86 1018.1
20260506122505 52 135 3.0 8.0 0.00 0.00 0.00 86 1018.1
20260506121005 52 135 4.0 11.0 0.00 0.00 0.00 86 1018.0
20260506120504 52 135 4.0 11.0 0.00 0.00 0.00 86 1018.0
20260506120006 52 117 3.0 11.0 0.00 0.00 0.00 86 1017.8
20260506115504 52 98 2.0 9.0 0.00 0.00 0.00 86 1017.7
20260506115005 52 178 3.0 12.0 0.00 0.00 0.00 86 1017.7
20260506114505 52 132 4.0 12.0 0.00 0.00 0.00 86 1017.7
20260506114005 52 151 4.0 10.0 0.00 0.00 0.00 86 1017.6
20260506113006 52 121 3.0 9.0 0.00 0.00 0.00 86 1017.6
20260506112504 52 155 3.0 9.0 0.00 0.00 0.00 86 1017.5
20260506111505 52 122 2.0 11.0 0.00 0.00 0.00 86 1017.5
20260506111004 52 145 3.0 11.0 0.00 0.00 0.00 86 1017.6
20260506110504 52 138 3.0 8.0 0.00 0.00 0.00 86 1017.5
20260506110007 52 152 4.0 8.0 0.00 0.00 0.00 86 1017.4
20260506105003 52 112 4.0 10.0 0.00 0.00 0.00 86 1017.2
20260506103505 52 178 3.0 9.0 0.00 0.00 0.00 86 1017.0
20260506103004 52 206 2.0 8.0 0.00 0.00 0.00 86 1017.0
20260506102504 52 135 4.0 9.0 0.00 0.00 0.00 86 1016.9
20260506102006 52 157 5.0 9.0 0.00 0.00 0.00 86 1016.9
20260506101006 53 115 4.0 9.0 0.00 0.00 0.00 86 1016.7
20260506100506 53 89 3.0 7.0 0.00 0.00 0.00 85 1016.6
20260506100005 53 140 3.0 10.0 0.00 0.00 0.00 85 1016.6
20260506095500 53 117 5.0 11.0 0.00 0.00 0.00 85 1016.6
20260506095004 53 130 4.0 11.0 0.00 0.00 0.00 85 1016.5
20260506094504 53 135 4.0 9.0 0.00 0.00 0.00 85 1016.5
20260506094004 53 216 3.0 9.0 0.00 0.00 0.00 85 1016.5
20260506093504 53 131 3.0 10.0 0.00 0.00 0.00 85 1016.5
20260506093005 53 114 3.0 10.0 0.00 0.00 0.00 85 1016.4
20260506092501 53 163 3.0 8.0 0.00 0.00 0.00 85 1016.4
20260506092005 53 135 2.0 8.0 0.00 0.00 0.00 85 1016.3
20260506091504 53 126 3.0 7.0 0.00 0.00 0.00 85 1016.3
20260506091004 53 173 3.0 9.0 0.00 0.00 0.00 85 1016.3
20260506090503 53 157 4.0 9.0 0.00 0.00 0.00 85 1016.3
20260506090006 53 178 2.0 9.0 0.00 0.00 0.00 85 1016.3
20260506085505 53 197 4.0 9.0 0.00 0.00 0.00 84 1016.2
20260506085005 53 152 4.0 9.0 0.00 0.00 0.00 84 1016.2
20260506084506 53 193 2.0 9.0 0.00 0.00 0.00 84 1016.2
20260506084005 54 203 3.0 9.0 0.00 0.00 0.00 84 1016.2
20260506083504 54 110 3.0 12.0 0.00 0.00 0.00 84 1016.2
20260506083006 54 161 5.0 12.0 0.00 0.00 0.00 84 1016.1
20260506082505 54 117 3.0 11.0 0.00 0.00 0.00 84 1016.1
20260506082006 54 128 5.0 11.0 0.00 0.00 0.00 84 1016.1
20260506081506 54 127 3.0 9.0 0.00 0.00 0.00 84 1016.0
20260506081006 54 143 3.0 7.0 0.00 0.00 0.00 84 1016.0
20260506080504 54 161 4.0 7.0 0.00 0.00 0.00 84 1016.0